Location: Rancho Del Sol Observatory
(38.7214°N, 120.6350°W)
Time: 12:31:01
(UTC-08:00)

Tiros 1 - Visible Passes

Search period start: 21 January 2020 00:00
Search period end: 31 January 2020 00:00
Orbit: 630 x 664 km, 48.4° (Epoch: 21 January)

Date Brightness Start Highest point End Pass type
(mag) Time Alt. Az. Time Alt. Az. Time Alt. Az.
21 Jan 8.3 17:53:12 10° NW 17:57:23 29° NNE 18:01:00 13° ENE visible
21 Jan 8.0 19:35:21 10° NW 19:38:42 44° NW 19:38:42 44° NW visible
22 Jan 7.7 18:19:18 10° NW 18:23:50 41° NNE 18:26:21 23° E visible
22 Jan 8.9 20:01:30 10° WNW 20:04:04 30° W 20:04:04 30° W visible
23 Jan 7.1 18:45:17 10° NW 18:50:04 71° NNE 18:51:52 38° ESE visible
23 Jan 9.9 20:28:08 10° W 20:29:35 17° W 20:29:35 17° W visible
24 Jan 7.6 19:11:25 10° WNW 19:16:07 57° SW 19:17:35 39° SSE visible
25 Jan 7.2 17:55:15 10° NW 18:00:00 67° NNE 18:04:47 10° ESE visible
25 Jan 9.1 19:37:59 10° WNW 19:41:56 26° SW 19:43:33 21° SSW visible
26 Jan 7.6 18:21:21 10° WNW 18:26:03 62° SW 18:30:47 10° SE visible
26 Jan 10.1 20:06:32 10° WSW 20:07:33 11° SW 20:08:34 10° SW visible
27 Jan 9.1 18:47:50 10° WNW 18:51:54 28° SW 18:55:59 10° SSE visible
28 Jan 10.2 19:15:49 10° WSW 19:17:32 12° SW 19:19:16 10° SSW visible
29 Jan 9.2 17:57:42 10° WNW 18:01:52 30° SW 18:06:03 10° SSE visible
30 Jan 10.2 18:25:20 10° WSW 18:27:32 13° SW 18:29:43 10° SSW visible
